Change the Weather History Date:

Monday, January 14, 2013

  Actual Average Record
Temperature  
Mean Temperature 24 °F -  
Max Temperature 32 °F 47 °F 64 °F (2004)
Min Temperature 16 °F 27 °F 15 °F (1997)
Degree Days  
Heating Degree Days 41    
Moisture  
Dew Point 12 °F    
Average Humidity 60    
Maximum Humidity 78    
Minimum Humidity 41    
Precipitation  
Precipitation 0.00 in - - ()
Sea Level Pressure  
Sea Level Pressure 30.38 in    
Wind  
Wind Speed 9 mph (NE)    
Max Wind Speed 15 mph    
Max Gust Speed -    
Visibility 10 miles    
Events      
Averages and records for this station are not official NWS values.
T = Trace of Precipitation, MM = Missing Value Source: NWS Daily Summary

Daily Weather History Graph

Daily Weather History Graph

Search for Another Location

Airport or City:

Trip Planner

Search our weather history database for the weather conditions in past years. The results will help you decide how hot, cold, wet, or windy it might be!

Date:

Astronomy

Jan. 14, 2013 Rise Set
Actual Time 7:45 AM CST 5:47 PM CST
Civil Twilight 7:17 AM CST 6:14 PM CST
Nautical Twilight 6:46 AM CST 6:45 PM CST
Astronomical Twilight 6:15 AM CST 7:16 PM CST
Moon 9:28 AM CST (1/14) 9:24 PM CST (1/14)
Length of Visible Light 10h 57m
Length of Day
10h 01m
Waxing Crescent, 11% of the Moon is Illuminated
Jan 14
Waxing Crescent
Jan 18
First Quarter
Jan 26
Full
Feb 3
Last Quarter
Feb 10
New

Hourly Weather History & Observations

Time (CST) Temp. Windchill Dew Point Humidity Pressure Visibility Wind Dir Wind Speed Gust Speed Precip Events Conditions
1:53 AM 16.0 °F 6.3 °F 10.0 °F 77% 30.39 in 10.0 mi NNE 6.9 mph - N/A   Clear
2:53 AM 16.0 °F 7.4 °F 10.0 °F 77% 30.40 in 10.0 mi NNE 5.8 mph - N/A   Clear
3:53 AM 19.0 °F 9.0 °F 10.0 °F 68% 30.41 in 10.0 mi NNE 8.1 mph - N/A   Clear
4:53 AM 18.0 °F 7.7 °F 12.0 °F 78% 30.40 in 10.0 mi NNE 8.1 mph - N/A   Clear
5:53 AM 18.0 °F 8.7 °F 10.9 °F 74% 30.41 in 10.0 mi North 6.9 mph - N/A   Clear
6:53 AM 18.0 °F 6.1 °F 10.0 °F 71% 30.44 in 10.0 mi North 10.4 mph - N/A   Clear
7:53 AM 19.0 °F 9.0 °F 10.9 °F 71% 30.45 in 10.0 mi NNE 8.1 mph - N/A   Clear
8:53 AM 19.9 °F 8.6 °F 10.9 °F 68% 30.44 in 10.0 mi NE 10.4 mph - N/A   Scattered Clouds
9:53 AM 23.0 °F 10.6 °F 10.9 °F 60% 30.44 in 10.0 mi NE 13.8 mph - N/A   Mostly Cloudy
10:53 AM 26.1 °F 14.5 °F 10.9 °F 53% 30.44 in 10.0 mi NE 13.8 mph - N/A   Clear
11:53 AM 28.0 °F 17.0 °F 10.0 °F 47% 30.41 in 10.0 mi ENE 13.8 mph - N/A   Clear
12:53 PM 30.0 °F 19.1 °F 9.0 °F 41% 30.37 in 10.0 mi ENE 15.0 mph - N/A   Clear
2:53 PM 32.0 °F 23.0 °F 10.9 °F 42% 30.32 in 10.0 mi NE 11.5 mph - N/A   Clear
3:53 PM 32.0 °F 23.6 °F 10.9 °F 42% 30.32 in 10.0 mi ENE 10.4 mph - N/A   Overcast
4:53 PM 30.9 °F 21.2 °F 10.9 °F 43% 30.33 in 10.0 mi NE 12.7 mph - N/A   Overcast
5:53 PM 28.0 °F 18.6 °F 12.0 °F 51% 30.34 in 10.0 mi ENE 10.4 mph - N/A   Mostly Cloudy
6:53 PM 26.1 °F 17.6 °F 14.0 °F 60% 30.35 in 10.0 mi NE 8.1 mph - N/A   Scattered Clouds
7:53 PM 27.0 °F 18.7 °F 14.0 °F 58% 30.35 in 10.0 mi NE 8.1 mph - N/A   Overcast
8:53 PM 27.0 °F 18.7 °F 12.9 °F 56% 30.34 in 10.0 mi ENE 8.1 mph - N/A   Overcast
9:53 PM 27.0 °F 20.5 °F 12.9 °F 56% 30.33 in 10.0 mi NE 5.8 mph - N/A   Overcast
10:53 PM 25.0 °F 17.1 °F 15.1 °F 66% 30.33 in 10.0 mi North 6.9 mph - N/A   Overcast
11:53 PM 25.0 °F 17.1 °F 15.1 °F 66% 30.33 in 10.0 mi North 6.9 mph - N/A   Overcast